• In Deutschland
  • Länderverzeichnis
  • Für 7 Tage
  • Wassertemperatur
  • Satellitenkarten
  • Wetterkarte
  • Widgets
  • user-avatar
    Anmelden

    Stündliche Wetter Jena

    Heute, 24 April, Dienstag

    Zeit Temperatur Niederschläge Wind Luftdruck Luftfeuchtigkeit
    00:00 +12°C° 0 mm 1 m/S 746 mmHg 89%
    01:00 +12°C° 0 mm 1 m/S 746 mmHg 90%
    02:00 +11°C° 0 mm 1 m/S 746 mmHg 91%
    03:00 +10°C° 0 mm 2 m/S 746 mmHg 91%
    04:00 +10°C° 0 mm 2 m/S 746 mmHg 92%
    05:00 +11°C° 0 mm 3 m/S 746 mmHg 89%
    06:00 +11°C° 0 mm 3 m/S 746 mmHg 86%
    07:00 +12°C° 0 mm 4 m/S 746 mmHg 83%
    08:00 +13°C° 0 mm 5 m/S 746 mmHg 77%
    09:00 +15°C° 0 mm 5 m/S 746 mmHg 70%
    10:00 +16°C° 0 mm 6 m/S 746 mmHg 64%
    11:00 +17°C° 0 mm 6 m/S 746 mmHg 60%
    12:00 +19°C° 0 mm 6 m/S 746 mmHg 57%
    13:00 +20°C° 0 mm 6 m/S 746 mmHg 53%
    14:00 +19°C° 0,1 mm 5 m/S 745 mmHg 55%
    15:00 +19°C° 0,1 mm 5 m/S 745 mmHg 57%
    16:00 +19°C° 0,1 mm 5 m/S 745 mmHg 59%
    17:00 +17°C° 0 mm 4 m/S 745 mmHg 65%
    18:00 +16°C° 0 mm 3 m/S 745 mmHg 72%
    19:00 +15°C° 0 mm 2 m/S 745 mmHg 78%
    20:00 +14°C° 0 mm 2 m/S 745 mmHg 81%
    21:00 +13°C° 0 mm 1 m/S 745 mmHg 84%
    22:00 +12°C° 0 mm 1 m/S 745 mmHg 87%
    23:00 +12°C° 0 mm 2 m/S 744 mmHg 86%

    Morgen, 25 April, Mittwoch

    Zeit Temperatur Niederschläge Wind Luftdruck Luftfeuchtigkeit
    00:00 +12°C° 0 mm 2 m/S 744 mmHg 86%
    01:00 +11°C° 0 mm 3 m/S 744 mmHg 86%
    02:00 +11°C° 0 mm 3 m/S 743 mmHg 86%
    03:00 +11°C° 0 mm 4 m/S 743 mmHg 87%
    04:00 +11°C° 0 mm 4 m/S 742 mmHg 88%
    05:00 +12°C° 0 mm 5 m/S 742 mmHg 86%
    06:00 +13°C° 0 mm 5 m/S 742 mmHg 84%
    07:00 +13°C° 0 mm 6 m/S 742 mmHg 82%
    08:00 +15°C° 0 mm 6 m/S 742 mmHg 76%
    09:00 +16°C° 0 mm 7 m/S 742 mmHg 71%
    10:00 +17°C° 0 mm 7 m/S 742 mmHg 66%
    11:00 +18°C° 0,4 mm 8 m/S 742 mmHg 67%
    12:00 +18°C° 0,4 mm 8 m/S 742 mmHg 67%
    13:00 +18°C° 0,4 mm 8 m/S 741 mmHg 68%
    14:00 +17°C° 0,4 mm 8 m/S 741 mmHg 69%
    15:00 +17°C° 0,4 mm 7 m/S 741 mmHg 71%
    16:00 +16°C° 0,4 mm 7 m/S 741 mmHg 73%
    17:00 +15°C° 0,2 mm 6 m/S 741 mmHg 76%
    18:00 +14°C° 0,2 mm 5 m/S 741 mmHg 79%
    19:00 +13°C° 0,2 mm 5 m/S 742 mmHg 82%
    20:00 +12°C° 0,1 mm 4 m/S 742 mmHg 84%
    21:00 +11°C° 0,1 mm 4 m/S 743 mmHg 87%
    22:00 +10°C° 0,1 mm 3 m/S 743 mmHg 90%
    23:00 +9°C° 0 mm 3 m/S 744 mmHg 91%

    übermorgen, 26 April, Donnerstag

    Zeit Temperatur Niederschläge Wind Luftdruck Luftfeuchtigkeit
    00:00 +8°C° 0 mm 3 m/S 744 mmHg 92%
    01:00 +8°C° 0 mm 3 m/S 745 mmHg 93%
    02:00 +7°C° 0 mm 3 m/S 745 mmHg 93%
    03:00 +7°C° 0 mm 3 m/S 745 mmHg 93%
    04:00 +6°C° 0 mm 4 m/S 745 mmHg 93%
    05:00 +6°C° 0 mm 4 m/S 745 mmHg 90%
    06:00 +7°C° 0 mm 5 m/S 745 mmHg 86%
    07:00 +7°C° 0 mm 6 m/S 746 mmHg 83%
    08:00 +8°C° 0 mm 6 m/S 746 mmHg 77%
    09:00 +9°C° 0 mm 7 m/S 746 mmHg 71%
    10:00 +10°C° 0 mm 7 m/S 746 mmHg 65%
    11:00 +10°C° 0,1 mm 7 m/S 746 mmHg 61%
    12:00 +11°C° 0,1 mm 7 m/S 746 mmHg 57%
    13:00 +12°C° 0,1 mm 7 m/S 746 mmHg 53%
    14:00 +12°C° 0,1 mm 7 m/S 746 mmHg 53%
    15:00 +13°C° 0,1 mm 6 m/S 746 mmHg 52%
    16:00 +13°C° 0,1 mm 6 m/S 746 mmHg 51%
    17:00 +12°C° 0,1 mm 5 m/S 746 mmHg 58%
    18:00 +11°C° 0,1 mm 3 m/S 746 mmHg 64%
    19:00 +10°C° 0,1 mm 2 m/S 747 mmHg 71%
    20:00 +9°C° 0 mm 2 m/S 747 mmHg 74%
    21:00 +8°C° 0 mm 2 m/S 747 mmHg 76%
    22:00 +7°C° 0 mm 2 m/S 748 mmHg 79%
    23:00 +6°C° 0 mm 2 m/S 748 mmHg 81%

    27 April, Freitag

    Zeit Temperatur Niederschläge Wind Luftdruck Luftfeuchtigkeit
    00:00 +6°C° 0 mm 2 m/S 747 mmHg 82%
    01:00 +5°C° 0 mm 2 m/S 747 mmHg 84%
    02:00 +5°C° 0 mm 2 m/S 747 mmHg 85%
    03:00 +5°C° 0 mm 2 m/S 747 mmHg 86%
    04:00 +5°C° 0 mm 2 m/S 747 mmHg 87%
    05:00 +6°C° 0 mm 2 m/S 747 mmHg 83%
    06:00 +8°C° 0 mm 1 m/S 747 mmHg 80%
    07:00 +9°C° 0 mm 1 m/S 746 mmHg 77%
    08:00 +10°C° 0 mm 2 m/S 746 mmHg 69%
    09:00 +13°C° 0 mm 2 m/S 746 mmHg 62%
    10:00 +14°C° 0 mm 2 m/S 746 mmHg 54%
    11:00 +16°C° 0 mm 2 m/S 745 mmHg 51%
    12:00 +17°C° 0 mm 2 m/S 744 mmHg 47%
    13:00 +18°C° 0 mm 2 m/S 744 mmHg 44%
    14:00 +18°C° 0 mm 2 m/S 743 mmHg 43%
    15:00 +20°C° 0 mm 1 m/S 743 mmHg 42%
    16:00 +20°C° 0 mm 1 m/S 742 mmHg 42%
    17:00 +19°C° 0 mm 1 m/S 742 mmHg 50%
    18:00 +16°C° 0 mm 2 m/S 741 mmHg 59%
    19:00 +14°C° 0 mm 2 m/S 741 mmHg 68%
    20:00 +13°C° 0 mm 2 m/S 741 mmHg 71%
    21:00 +12°C° 0 mm 1 m/S 741 mmHg 75%
    22:00 +11°C° 0 mm 1 m/S 741 mmHg 79%
    23:00 +11°C° 0 mm 1 m/S 741 mmHg 80%

    28 April, Samstag

    Zeit Temperatur Niederschläge Wind Luftdruck Luftfeuchtigkeit
    00:00 +10°C° 0 mm 1 m/S 741 mmHg 80%
    01:00 +10°C° 0 mm 1 m/S 741 mmHg 81%
    02:00 +10°C° 0 mm 1 m/S 742 mmHg 83%
    03:00 +8°C° 0 mm 2 m/S 742 mmHg 85%
    04:00 +8°C° 0 mm 2 m/S 742 mmHg 87%
    05:00 +8°C° 0 mm 2 m/S 743 mmHg 85%
    06:00 +10°C° 0 mm 1 m/S 743 mmHg 83%
    07:00 +11°C° 0 mm 1 m/S 743 mmHg 80%
    08:00 +13°C° 0 mm 1 m/S 744 mmHg 75%
    09:00 +14°C° 0 mm 2 m/S 744 mmHg 70%
    10:00 +16°C° 0 mm 2 m/S 744 mmHg 65%
    11:00 +17°C° 0 mm 2 m/S 744 mmHg 63%
    12:00 +17°C° 0 mm 2 m/S 744 mmHg 61%
    13:00 +18°C° 0 mm 2 m/S 744 mmHg 60%
    14:00 +18°C° 0 mm 3 m/S 744 mmHg 61%
    15:00 +18°C° 0 mm 3 m/S 743 mmHg 62%
    16:00 +18°C° 0 mm 4 m/S 743 mmHg 63%
    17:00 +17°C° 0 mm 3 m/S 743 mmHg 70%
    18:00 +16°C° 0 mm 3 m/S 743 mmHg 76%
    19:00 +13°C° 0 mm 3 m/S 743 mmHg 82%
    20:00 +13°C° 0 mm 3 m/S 743 mmHg 84%
    21:00 +12°C° 0 mm 3 m/S 743 mmHg 87%
    22:00 +11°C° 0 mm 3 m/S 743 mmHg 89%
    23:00 +11°C° 0 mm 3 m/S 743 mmHg 89%

    29 April, Sonntag

    Zeit Temperatur Niederschläge Wind Luftdruck Luftfeuchtigkeit
    00:00 +10°C° 0 mm 3 m/S 742 mmHg 90%
    01:00 +10°C° 0 mm 4 m/S 742 mmHg 90%
    02:00 +10°C° 0 mm 4 m/S 742 mmHg 90%
    03:00 +10°C° 0 mm 4 m/S 741 mmHg 90%
    04:00 +10°C° 0 mm 4 m/S 741 mmHg 90%
    05:00 +10°C° 0 mm 4 m/S 740 mmHg 89%
    06:00 +10°C° 0 mm 5 m/S 740 mmHg 88%
    07:00 +10°C° 0 mm 5 m/S 739 mmHg 87%
    08:00 +13°C° 0 mm 5 m/S 739 mmHg 83%
    09:00 +15°C° 0 mm 5 m/S 739 mmHg 80%
    10:00 +16°C° 0 mm 5 m/S 738 mmHg 77%
    11:00 +17°C° 0,1 mm 5 m/S 738 mmHg 76%
    12:00 +19°C° 0,1 mm 5 m/S 737 mmHg 75%
    13:00 +20°C° 0,1 mm 5 m/S 736 mmHg 74%
    14:00 +20°C° 0,6 mm 4 m/S 736 mmHg 74%
    15:00 +20°C° 0,6 mm 4 m/S 736 mmHg 75%
    16:00 +21°C° 0,6 mm 3 m/S 735 mmHg 75%
    17:00 +20°C° 1,4 mm 2 m/S 735 mmHg 80%
    18:00 +19°C° 1,4 mm 2 m/S 735 mmHg 85%
    19:00 +18°C° 1,4 mm 1 m/S 735 mmHg 90%
    20:00 +17°C° 0,1 mm 2 m/S 735 mmHg 91%
    21:00 +16°C° 0,1 mm 2 m/S 736 mmHg 93%
    22:00 +14°C° 0,1 mm 3 m/S 736 mmHg 94%
    23:00 +13°C° 0 mm 3 m/S 736 mmHg 94%
    Mehr zeigen